Location: Sternwarte Zollern-Alb
(48.2880°N, 8.6780°E)
Time: 04:33:32
(UTC+01:00)

BlueWalker 3 - Visible Passes

Search period start: 22 January 2026 00:00
Search period end: 01 February 2026 00:00
Orbit: 451 x 463 km, 53.2° (Epoch: 21 January)

Date Brightness Start Highest point End Pass type
(mag) Time Alt. Az. Time Alt. Az. Time Alt. Az.
22 Jan 4.0 17:48:06 10° SSE 17:49:45 13° SE 17:51:24 10° ESE visible
22 Jan 2.3 19:23:08 10° SW 19:25:58 51° SSW 19:25:58 51° SSW visible
23 Jan 1.9 18:47:45 10° SW 18:51:14 55° SE 18:52:08 41° E visible
23 Jan 5.0 20:25:23 10° W 20:25:53 13° W 20:25:53 13° W visible
24 Jan 2.3 18:12:23 10° SW 18:15:48 44° SE 18:18:14 17° ENE visible
24 Jan 3.5 19:49:48 10° W 19:51:58 31° WNW 19:51:58 31° WNW visible
25 Jan 2.0 19:14:13 10° W 19:17:44 56° NNW 19:17:59 54° N visible
26 Jan 1.9 18:38:37 10° WSW 18:42:10 65° NNW 18:43:56 27° NE visible
26 Jan 4.6 20:16:43 10° WNW 20:17:39 16° WNW 20:17:39 16° WNW visible
27 Jan 1.8 18:03:01 10° WSW 18:06:35 77° NNW 18:09:50 12° ENE visible
27 Jan 3.2 19:41:04 10° WNW 19:43:33 31° NW 19:43:33 31° NW visible
28 Jan 2.6 19:05:23 10° WNW 19:08:45 38° N 19:09:25 34° NNE visible
29 Jan 2.6 18:29:40 10° W 18:33:04 40° N 18:35:14 19° NE visible
29 Jan 4.2 20:07:39 10° WNW 20:08:58 20° NW 20:08:58 20° NW visible
30 Jan 2.4 17:53:57 10° W 17:57:23 43° NNW 18:00:49 10° ENE visible
30 Jan 2.9 19:31:59 10° WNW 19:34:46 35° NNW 19:34:46 35° NNW visible
31 Jan 2.6 18:56:17 10° WNW 18:59:37 36° N 19:00:34 30° NE visible
31 Jan 4.9 20:33:51 10° WNW 20:34:17 13° WNW 20:34:17 13° WNW visible
